Regional Weather Roundup
Issued by NWS

Home | Current Version | Previous Version | Text Only | Print | Product List | Glossary On
Versions: 1 2 3 4 5 6 7 8 9 10 11 12 13 14 15 16 17 18 19 20 21 22 23 24 25 26 27 28 29 30 31 32 33 34 35 36 37 38 39 40 41 42 43 44 45 46 47 48 49 50
000
ASUS43 KTOP 312308
RWRKS

WEATHER ROUNDUP FOR KANSAS
NATIONAL WEATHER SERVICE GOODLAND KS
600 PM CDT THU JUL 31 2014

NOTE:  "FAIR" INDICATES FEW OR NO CLOUDS BELOW 12,000 FEET WITH NO
SIGNIFICANT WEATHER AND/OR OBSTRUCTIONS TO VISIBILITY.

KSZ001>006-013>018-027>032-041>047-010000-
NORTHWEST KANSAS

CITY           SKY/WX    TMP DP  RH WIND       PRES   REMARKS
GOODLAND       SUNNY     84  43  23 N5        30.15F
HAYS           SUNNY     86  55  35 S8        30.05F
HILL CITY      SUNNY     91  45  20 VRB3      30.04F
RUSSELL        SUNNY     85  57  38 S7        30.04F
$$

KSZ061>065-074>080-084>089-010000-
SOUTHWEST KANSAS

CITY           SKY/WX    TMP DP  RH WIND       PRES   REMARKS
DODGE CITY     SUNNY     83  52  34 NE8       30.11F
ELKHART          N/A     78  53  41 E7          N/A
GARDEN CITY    MOSUNNY   81  50  33 E5        30.12F
GREAT BEND       N/A     82  55  39 CALM      30.06F
LIBERAL        MOSUNNY   81  54  39 N9G17     30.15S
PRATT          SUNNY     81  50  34 CALM      30.09F
$$

KSZ066>073-081>083-090>101-010000-
SOUTHEAST KANSAS

CITY           SKY/WX    TMP DP  RH WIND       PRES   REMARKS
CHANUTE        MOSUNNY   83  59  44 E6        30.05F
COFFEYVILLE    MOSUNNY   80  62  54 NE6       30.03F
HUTCHINSON     SUNNY     82  52  35 CALM      30.07F
MEDICINE LODGE   N/A     81  55  40 CALM      30.07F
NEWTON         SUNNY     81  50  34 SW3       30.10S
PARSONS        MOSUNNY   80  60  50 SE3       30.05F
WICHITA INTL   MOSUNNY   83  52  34 VRB3      30.05F
WICHITA JABRA  SUNNY     83  56  39 NW3       30.06F
WICHITA MCCONL SUNNY     83  53  35 SE6       30.06F
WINFIELD       MOSUNNY   81  61  50 VRB5      30.06F
$$

KSZ007>012-019>026-033>040-048>060-102>105-010000-
NORTHEAST KANSAS

CITY           SKY/WX    TMP DP  RH WIND       PRES   REMARKS
CONCORDIA      SUNNY     86  56  35 SE8G17    30.02F
EMPORIA        SUNNY     83  52  34 NE8       30.05F
LAWRENCE       SUNNY     87  55  33 CALM      30.05S
MANHATTAN      SUNNY     86  53  32 CALM      30.04S
MARYSVILLE     SUNNY     86  52  30 SE5       30.02S
OLATHE IND     PTSUNNY   83  55  38 SE3       30.06S
OLATHE EXE     SUNNY     82  56  40 E5        30.05F
SALINA         SUNNY     87  48  25 CALM      30.04F
TOPEKA BILLARD SUNNY     86  54  33 NE7       30.04S
TOPEKA FORBES  SUNNY     84  50  30 CALM      30.05S
$$



USA.gov is the U.S. government's official web portal to all federal, state and local government web resources and services.